Tracking 19562 objects as of 21-Mar-2019
HD Live streaming from Space Station
objects crossing your sky now

ECHOSTAR 6

Track ECHOSTAR 6 now!
ECHOSTAR 6 is classified as:


NORAD ID: 26402
Int'l Code: 2000-038A
Perigee: 36,190.7 km
Apogee: 36,239.6 km
Inclination: 5.4 °
Period: 1,457.7 minutes
Semi major axis: 42586 km
RCS: 25.1188 m2 (large)
Launch date: July 14, 2000
Source: United States (US)
Launch site: AIR FORCE EASTERN TEST RANGE (AFETR)

CONUS, Hawaii, Alaska and Puerto Rico; 32 Ku-band transponders
aabbcc
Your satellite tracking list
Your tracking list is empty




NASA's NSSDC Master Catalog

Two Line Element Set (TLE):
1 26402U 00038A   19079.90372330 +.00000035 +00000-0 +00000-0 0  9996
2 26402 005.3993 064.0189 0005736 278.2411 223.0735 00.98787074068375
Source of the keplerian elements: AFSPC